Probability
5 4 4 4 4 4 4 4 5 4 2 1 0 0 0 0 0 0 0 0 0 0 0 0 0 0 0 0 0 0 0 0 0 0 0 0 0 0 0 0 0 0 0
3 3 4 4 4 4 4 3 3 2 1 0 0 0 0 0 0 0 0 0 0 0 0 0 0 0 0 0 0 0 0 0 0 0 0 0 0 0 0 0 0 0 0
1 2 3 4 4 5 4 2 1 0 0 0 0 0 0 0 0 0 0 0 0 0 0 0 0 0 0 0 0 0 0 0 0 0 0 0 0 0 0 0 0 0 0
0 1 2 3 4 4 3 1 0 0 0 0 0 0 0 0 0 0 0 0 0 0 0 0 0 0 0 0 0 0 0 0 0 0 0 0 0 0 0 0 0 0 0
0 1 2 2 2 2 1 0 0 0 0 0 0 0 0 0 0 0 0 0 0 0 0 0 0 0 0 0 0 0 0 0 0 0 0 0 0 0 0 0 0 0 0
1 1 2 3 2 1 0 0 0 0 0 0 0 0 0 0 0 0 0 0 0 0 0 0 0 0 0 0 0 0 0 0 0 0 0 0 0 0 0 0 0 0 0
2 3 3 2 1 0 0 0 0 0 0 0 0 0 0 0 0 0 0 0 0 0 0 0 0 0 0 0 0 0 0 0 0 0 0 0 0 0 0 0 0 0 0
3 3 2 1 0 0 0 0 0 0 0 0 0 0 0 0 0 0 0 0 0 0 0 0 0 0 0 0 0 0 0 0 0 0 0 0 0 0 0 0 0 0 0
2 1 1 0 0 0 0 0 0 0 0 0 0 0 0 0 0 0 0 0 0 0 0 0 0 0 0 0 0 0 0 0 0 0 0 0 0 0 0 0 0 0 0
1 0 0 0 0 0 0 0 0 0 0 0 0 0 0 0 0 0 0 0 0 0 0 0 0 0 0 0 0 0 0 0 0 0 0 0 0 0 0 0 0 0 0
0 0 0 0 0 0 0 0 0 0 0 0 0 0 0 0 0 0 0 0 0 0 0 0 0 0 0 0 0 0 0 0 0 0 0 0 0 0 0 0 0 0 0
0 0 0 0 0 0 0 0 0 0 0 0 0 0 0 0 0 0 0 0 0 0 0 0 0 0 0 0 0 0 0 0 0 0 0 0 0 0 0 0 0 0 0
1 1 2 1 0 0 0 0 0 0 0 0 0 0 0 0 0 0 0 0 0 0 0 0 0 0 0 0 0 0 0 0 0 0 0 0 0 0 0 0 0 0 0
2 2 3 2 1 0 0 0 0 0 0 0 1 1 0 0 0 0 0 0 0 0 0 0 0 0 0 0 0 0 0 0 0 0 0 0 0 0 0 0 0 0 0
1 2 3 3 1 0 0 0 0 0 0 1 2 2 1 0 0 0 0 0 0 0 0 0 0 0 0 0 0 0 0 0 0 0 0 0 0 0 0 0 0 0 0
0 1 2 3 3 1 0 0 0 0 0 2 3 2 1 0 0 0 0 0 0 0 0 0 0 0 0 0 0 0 0 0 0 0 0 0 0 0 0 0 0 0 0
0 0 2 4 4 1 0 0 0 0 0 1 2 1 0 0 0 0 0 0 0 0 0 0 0 0 0 0 0 0 0 0 0 0 0 0 0 0 0 0 0 0 0
0 0 1 2 2 1 0 0 0 0 0 0 0 0 0 0 0 0 0 0 0 0 0 0 0 0 0 0 0 0 0 0 0 0 0 0 0 0 0 0 0 0 0
0 0 0 1 1 0 0 0 0 0 0 0 0 0 0 0 0 0 0 0 0 0 0 0 0 0 0 0 0 0 0 0 0 0 0 0 0 0 0 0 0 0 0
0 0 0 0 0 0 0 0 0 0 0 0 0 0 0 0 0 0 0 0 0 0 0 0 0 0 0 0 0 0 0 0 0 0 0 0 0 0 0 0 0 0 0
0 0 0 0 0 0 0 0 0 0 0 0 0 0 0 0 0 0 0 0 0 0 0 0 0 0 0 0 0 0 0 0 0 0 0 0 0 0 0 0 0 0 0
0 0 0 0 0 0 0 0 0 0 0 0 0 0 0 0 0 0 0 0 0 0 0 0 0 0 0 0 0 0 0 0 0 0 0 0 0 0 0 0 0 0 0
0 0 0 0 0 0 0 0 0 0 0 0 0 0 0 0 0 0 0 0 0 0 0 0 0 0 0 0 0 0 0 0 0 0 0 0 0 0 0 0 0 0 0
0 0 0 0 0 0 0 0 0 0 0 0 0 0 0 0 0 0 0 0 0 0 0 0 0 0 0 0 0 0 0 0 0 0 0 0 0 0 0 0 0 0 0
0 0 1 1 1 0 0 0 0 0 0 0 0 0 0 0 0 0 0 0 0 0 0 0 0 0 0 0 0 0 0 0 0 0 0 0 0 0 0 0 0 0 0
0 1 2 2 2 1 0 0 0 0 0 0 0 0 0 0 0 0 0 0 0 0 0 0 0 0 0 0 0 0 0 0 0 0 0 0 0 0 0 0 0 0 0
Wind_Speed
4 4 6 7 7 5 6 5 5 5 4 3 3 3 2 1 1 1 2 3 3 3 3 2 3 2 2 1 1 1 1 1 1 2 4 4 3 2 2 2 2 3 4
5 6 6 6 6 6 5 5 5 5 4 3 2 2 2 2 2 1 2 2 3 3 3 3 2 2 2 3 2 2 1 2 1 1 1 4 5 4 3 2 1 2 2
9 8 7 6 7 7 6 6 5 5 4 4 3 3 3 3 3 2 1 1 1 2 2 3 3 3 3 1 1 1 2 0 1 1 2 1 2 4 4 3 2 3 2
8 8 8 7 7 7 6 6 5 5 4 4 4 4 3 2 1 1 0 1 1 0 1 2 3 3 2 2 1 1 1 1 1 2 0 2 3 1 3 4 3 4 3
10 10 9 9 8 8 7 6 6 5 4 5 5 5 4 2 1 1 2 2 2 2 2 3 3 3 2 1 1 1 0 1 1 1 1 1 0 1 2 4 4 4 3
10 9 9 8 7 7 7 7 6 5 5 5 6 6 5 4 4 3 2 2 2 2 3 3 3 2 1 1 0 0 1 1 1 1 1 1 1 1 1 3 3 4 4
10 10 10 9 9 9 8 7 7 5 5 6 5 5 5 5 5 3 2 2 1 1 1 2 2 1 0 1 0 0 1 1 2 2 2 2 3 3 2 2 3 3 4
11 12 12 11 11 10 9 8 8 6 6 6 5 5 5 4 3 4 3 3 2 1 1 1 1 0 1 1 0 0 1 1 2 3 3 2 3 3 3 3 2 3 3
13 13 12 11 11 11 10 10 9 7 7 6 5 5 5 5 4 4 3 2 2 2 2 1 0 1 1 1 1 1 2 2 2 3 3 3 3 3 3 3 3 3 3
13 12 11 11 10 10 9 9 9 9 7 7 6 5 5 5 5 4 3 3 2 2 2 1 1 2 2 2 2 2 3 3 3 3 3 3 3 3 3 3 2 3 4
14 12 11 10 10 10 10 9 8 7 7 7 6 6 5 5 4 4 4 3 3 2 2 2 2 3 3 3 2 3 3 3 4 3 3 4 4 3 3 3 2 3 3
13 13 12 11 10 10 10 9 9 8 8 7 6 6 5 5 4 4 4 3 3 3 3 3 3 4 4 3 3 4 4 4 4 5 4 5 4 4 3 3 4 3 4
12 11 11 11 11 10 10 9 9 8 7 7 6 6 5 5 5 5 4 4 4 4 4 3 4 4 4 4 5 5 5 4 5 5 5 5 4 5 4 4 4 4 4
14 12 11 11 10 10 10 9 8 8 8 7 7 6 6 6 6 5 5 4 4 4 4 4 5 5 5 5 5 4 4 4 4 5 5 5 5 6 6 5 5 5 4
14 14 13 11 10 9 9 9 8 8 8 7 7 7 6 6 5 5 5 4 4 5 4 4 4 4 4 4 4 4 4 4 5 5 5 6 8 10 7 6 5 5 4
15 14 13 12 12 12 10 9 9 8 8 8 7 6 6 6 6 5 5 4 4 4 3 4 4 4 4 5 7 6 5 5 5 6 6 7 9 10 10 11 10 8 6
14 14 14 14 13 12 11 11 9 8 8 7 7 6 7 6 6 5 4 4 4 4 4 4 5 5 7 9 10 10 6 6 6 6 6 6 7 8 6 8 10 9 10
14 13 12 11 10 9 9 9 8 8 8 7 6 6 6 6 5 5 5 5 4 4 4 5 6 6 8 10 10 10 6 6 6 7 7 7 8 8 7 7 7 7 7
13 12 12 11 9 10 10 9 8 7 7 7 7 6 6 6 6 5 5 5 4 4 5 5 6 6 8 10 11 9 4 5 7 7 7 7 7 10 10 6 7 7 7
8 9 9 8 9 9 9 10 8 7 8 8 7 6 6 7 6 6 6 5 4 5 5 6 6 7 8 10 11 9 4 5 6 6 6 9 9 9 9 5 6 7 8
7 9 9 9 10 9 9 9 8 9 8 6 6 5 6 6 6 5 4 5 5 5 5 6 6 6 8 10 11 10 5 6 6 5 5 5 9 10 10 7 6 10 9
6 9 9 8 7 8 10 8 8 8 6 6 6 5 5 5 4 4 4 5 5 5 5 5 6 5 6 7 8 10 10 8 6 6 5 6 10 11 11 8 10 13 10
7 7 8 8 6 7 9 9 7 5 5 5 5 5 5 5 4 5 5 4 4 4 5 5 5 6 5 5 9 10 10 10 6 6 9 10 12 11 9 12 14 11 6
5 5 7 7 6 5 5 6 5 5 5 5 5 4 4 5 5 4 4 4 5 5 5 5 6 6 5 5 4 4 5 6 6 5 7 9 11 10 11 10 8 6 6
3 4 5 5 5 4 4 3 4 5 4 4 4 4 4 5 5 5 5 6 7 7 7 7 7 6 7 9 10 6 5 5 4 3 3 3 4 5 5 5 6 5 5
4 4 4 3 3 3 3 2 2 3 4 3 3 3 3 3 4 4 5 8 10 13 14 14 11 8 12 12 11 11 11 9 6 3 4 5 5 6 7 6 6 5 6
Wind_Direction
172 160 149 144 132 124 130 137 133 133 124 112 109 108 109 106 107 131 135 133 126 117 112 110 100 92 86 73 47 44 10 343 3 17 336 320 307 292 271 262 259 254 246
171 164 159 146 141 147 144 139 137 136 134 130 129 132 125 106 103 82 76 90 107 121 128 128 124 110 89 55 40 55 38 341 24 75 12 341 336 333 327 322 302 291 277
172 167 163 158 151 153 156 151 147 140 138 126 101 82 67 61 50 41 32 20 110 136 141 149 138 124 115 102 62 84 107 347 328 106 140 115 290 312 322 332 342 328 303
172 167 168 165 163 163 158 146 148 142 137 122 112 114 115 115 147 173 44 355 12 62 129 136 131 125 119 112 84 104 124 127 310 325 231 188 194 232 311 320 327 326 315
174 173 176 172 166 161 153 152 148 144 141 129 125 118 114 127 117 78 60 36 22 36 74 104 114 118 117 118 96 69 78 162 191 233 278 309 281 184 195 293 318 325 312
175 175 174 165 162 161 154 149 146 147 142 130 127 129 129 123 103 82 74 45 22 26 54 89 96 109 121 153 212 250 275 248 231 227 220 210 229 248 217 255 289 298 296
174 174 172 170 170 168 163 157 151 149 145 136 138 140 138 132 133 134 120 102 62 40 44 80 96 106 208 230 199 263 290 277 268 256 243 226 220 212 204 222 266 282 290
178 179 179 176 175 173 167 160 157 156 154 149 152 150 143 139 146 153 149 149 162 174 159 117 111 71 299 299 254 264 273 267 273 276 266 250 249 226 210 210 230 289 298
183 183 181 177 173 171 171 166 162 160 164 163 158 156 155 156 164 168 160 166 183 182 167 159 196 289 288 278 266 258 270 277 270 273 274 263 259 251 237 219 199 208 270
186 184 179 174 170 169 166 163 163 168 172 169 166 163 168 170 173 168 169 177 189 185 187 224 252 269 274 270 258 259 263 267 273 264 271 272 265 268 259 245 230 205 213
186 180 174 169 163 160 162 165 169 168 170 171 168 162 172 172 164 164 177 184 195 202 212 232 242 252 259 262 254 257 261 262 272 277 270 272 269 267 270 264 253 240 215
177 170 166 161 161 164 167 170 173 173 176 173 169 172 173 167 167 179 191 191 199 213 220 228 237 249 251 248 243 255 261 253 261 267 269 272 277 274 269 263 258 252 237
164 161 162 166 170 171 171 173 174 174 172 167 166 169 173 175 185 195 199 201 207 221 230 230 237 247 250 249 248 244 250 250 252 255 255 262 267 270 268 265 260 257 262
165 164 169 173 173 172 173 173 174 171 167 164 166 174 185 189 196 200 205 210 213 220 234 237 237 240 245 248 251 246 242 248 253 253 253 257 255 255 259 263 257 255 259
168 171 174 175 174 173 175 172 172 172 168 166 174 189 194 194 195 200 211 217 221 227 229 236 246 250 248 242 234 234 239 243 256 263 263 264 267 264 260 261 252 248 245
177 178 177 175 177 177 177 173 174 175 169 173 187 193 190 193 200 208 215 216 223 231 231 237 243 251 250 244 233 231 239 244 250 260 267 273 274 274 273 274 268 251 238
178 179 181 181 181 180 175 175 177 172 173 183 192 193 192 198 206 207 200 210 221 224 232 241 243 249 254 256 254 248 233 237 244 251 262 275 279 281 273 277 281 276 262
180 184 182 181 180 175 170 167 164 169 178 188 198 197 193 198 201 199 209 219 218 222 232 241 245 249 257 256 254 252 237 237 246 248 250 258 271 275 266 266 270 266 265
183 185 182 175 169 170 168 159 166 174 180 193 200 199 191 193 197 207 220 221 218 232 237 242 246 250 260 260 256 247 227 239 252 254 255 254 263 272 273 264 263 270 273
179 176 167 158 163 172 161 159 172 178 193 199 199 193 187 190 201 213 219 218 218 233 243 251 249 247 255 261 259 243 214 237 253 260 260 259 260 268 273 254 250 262 267
173 165 158 165 176 169 160 169 178 195 202 193 188 187 190 196 205 215 220 223 227 239 248 256 261 257 255 263 263 249 212 223 241 252 259 258 262 265 267 258 241 249 257
162 160 162 173 173 165 165 175 194 202 186 177 182 192 200 208 207 212 228 227 226 240 253 258 268 265 259 254 257 252 234 221 221 241 250 256 264 267 269 265 256 258 261
165 164 166 168 169 172 172 185 202 180 167 174 191 203 209 219 218 216 228 235 231 233 246 246 254 263 260 257 256 251 243 231 223 241 252 262 270 274 272 264 262 262 247
158 155 153 160 172 178 183 191 180 166 165 187 205 210 217 236 241 235 229 231 236 237 241 241 246 254 258 253 247 242 243 244 243 254 267 274 274 269 263 267 266 248 231
104 127 147 163 173 175 186 187 172 163 175 197 211 220 227 239 252 250 238 233 232 228 228 236 232 236 251 250 231 215 222 222 227 243 272 272 276 275 271 266 260 251 241
85 93 104 126 150 154 169 176 166 164 175 207 227 231 239 246 250 262 276 257 249 255 248 245 241 238 241 254 251 236 235 235 219 205 248 262 262 264 266 267 266 257 248